Location: Croydon
(51.3762°N, 0.0982°W)
Time: 17:26:21
(UTC+00:00)

Altair - Pass Details

Date: 14 November 2019
Orbit: 1502 x 1682 km, 47.2° (Epoch: 07 December)

Event Time Altitude Azimuth Distance (km) Brightness Sun altitude
Rises 06:04:40 0° 249° (WSW) 4,631 - -11.1°
Exits shadow 06:05:42 - 249° (WSW) 4,296 9.4 -10.9°
Reaches altitude 10° 06:07:41 10° 247° (WSW) 3,654 9.0 -10.6°
Maximum altitude 06:16:43 66° 168° (SSE) 1,643 7.8 -9.3°
Drops below altitude 10° 06:26:00 10° 90° (E) 3,746 10.9 -7.9°
Sets 06:29:08 0° 87° (E) 4,754 11.5 -7.4°
